This demonstration page uses our WeatherBlox Daily Observations layout. Learn more.

Left ArrowRight Arrow

Hourly Observations for February 6, 2016

Temp ( °F °C ) Dew Point ( °F °C ) Humidity (%) Winds ( mph kmh ) Pressure ( in mb ) Visibility ( mi km ) Precip ( " mm )
12:58 am 00:58 Cloudy 29 -1.8 29 -1.9 99 99 WNW 7 11 30.30 1026 10 16 0.00 0.00
1:58 am 01:58 Cloudy 30 -1.1 30 -1.2 99 99 WNW 3 6 30.30 1026 10 16 0.00 0.00
2:40 am 02:40 Cloudy 32 0 32 0 100 100 NW 3 6 30.33 1027 10 16 0.00 0.00
2:58 am 02:58 Cloudy 31 -0.7 31 -0.8 99 99 WNW 3 6 30.31 1026 10 16 0.00 0.00
3:16 am 03:16 Cloudy 32 0 32 0 100 100 Calm 30.30 1026 10 16 0.00 0.00
3:54 am 03:54 Cloudy 32 0 32 0 100 100 W 2 4 30.30 1026 10 16 0.00 0.00
3:58 am 03:58 Cloudy 31 -0.8 30 -1 99 99 WSW 2 4 30.29 1026 10 16 0.00 0.00
4:21 am 04:21 Cloudy 30 -1 30 -1 100 100 W 2 4 30.30 1026 10 16 0.00 0.00
4:27 am 04:27 Cloudy 28 -2 28 -2 100 100 WSW 2 4 30.30 1026 10 16 0.00 0.00
4:42 am 04:42 Cloudy 30 -1 30 -1 100 100 W 2 4 30.30 1026 9 14 0.00 0.00
4:52 am 04:52 Cloudy 30 -1 30 -1 100 100 W 2 4 30.30 1026 10 16 0.00 0.00
4:58 am 04:58 Cloudy 30 -0.9 30 -1 99 99 W 2 4 30.29 1026 10 16 0.00 0.00
5:16 am 05:16 Cloudy 25 -4 25 -4 100 100 WNW 6 9 30.33 1027 7 11 0.00 0.00
5:34 am 05:34 Mostly Cloudy 25 -4 25 -4 100 100 NW 7 11 30.36 1028 10 16 0.00 0.00
5:58 am 05:58 Mostly Cloudy 26 -3.5 26 -3.6 99 99 NNW 1 2 30.29 1026 10 16 0.00 0.00
6:00 am 06:00 Partly Cloudy 25 -4 25 -4 100 100 Calm 30.33 1027 10 16 0.00 0.00
6:32 am 06:32 Clear with Mist and Fog 19 -7 19 -7 100 100 Calm 30.33 1027 2 3 0.00 0.00
6:35 am 06:35 Clear with Mist and Fog 19 -7 19 -7 100 100 Calm 30.33 1027 1 1 0.00 0.00
6:36 am 06:36 Clear with Mist and Fog 19 -7 19 -7 100 100 Calm 30.33 1027 1 1 0.00 0.00
6:58 am 06:58 Mostly Cloudy with Mist and Fog 18 -8 16 -9 93 93 Calm 30.31 1026 6 10 0.00 0.00
7:01 am 07:01 Mostly Cloudy with Mist and Fog 16 -9 16 -9 100 100 Calm 30.33 1027 2 3 0.00 0.00
7:25 am 07:25 Mostly Cloudy with Freezing Fog 19 -7 18 -8 93 93 SW 3 6 30.33 1027 1 1 0.00 0.00
7:39 am 07:39 Mostly Cloudy with Freezing Fog 18 -8 16 -9 93 93 Calm 30.33 1027 0 0 0.00 0.00
7:58 am 07:58 Mostly Cloudy with Freezing Fog 16 -9 16 -9 100 100 Calm 30.31 1026 1 1 0.00 0.00
8:13 am 08:13 Mostly Cloudy with Mist and Fog 14 -10 14 -10 100 100 Calm 30.39 1029 2 3 0.00 0.00
8:20 am 08:20 Sunny with Mist and Fog 14 -10 12 -11 92 92 VRB 2 4 30.36 1028 3 5 0.00 0.00
8:58 am 08:58 Sunny with Mist and Fog 19 -7 18 -8 93 93 S 5 7 30.30 1026 3 5 0.00 0.00
9:58 am 09:58 Sunny with Mist and Fog 23 -5 23 -5 100 100 Calm 30.30 1026 3 5 0.00 0.00
10:58 am 10:58 Sunny 29 -1.9 28 -2 99 99 S 6 9 30.28 1026 10 16 0.01 0.25
11:58 am 11:58 Sunny 36 2.1 28 -2.5 72 72 SW 13 20 30.26 1025 10 16 0.00 0.00
12:58 pm 12:58 Sunny 38 3.1 27 -2.8 66 66 S 8 13 30.21 1023 10 16 0.00 0.00
1:58 pm 13:58 Sunny 39 3.9 27 -3 61 61 SSW 13 20 30.17 1022 10 16 0.00 0.00
2:58 pm 14:58 Sunny 39 4.1 28 -2.4 63 63 SSW 8 13 30.15 1021 10 16 0.00 0.00
3:58 pm 15:58 Sunny 40 4.3 29 -1.8 65 65 S 8 13 30.13 1020 10 16 0.00 0.00
4:58 pm 16:58 Sunny 40 4.2 29 -1.6 66 66 SSW 10 17 30.11 1020 10 16 0.00 0.00
5:58 pm 17:58 Clear 38 3.6 30 -1.2 71 71 S 12 19 30.06 1018 10 16 0.00 0.00
6:58 pm 18:58 Clear 38 3.5 30 -0.9 73 73 SSW 12 19 30.05 1018 10 16 0.00 0.00
7:58 pm 19:58 Clear 39 3.7 30 -1.3 70 70 SSW 10 17 30.03 1017 10 16 0.00 0.00
8:58 pm 20:58 Clear 39 3.7 28 -2.3 65 65 WSW 7 11 30.03 1017 10 16 0.00 0.00
9:58 pm 21:58 Clear 36 2.1 28 -2.4 72 72 SE 5 7 30.00 1016 10 16 0.00 0.00
10:58 pm 22:58 Clear 36 2 28 -2.5 72 72 SSE 3 6 29.96 1015 10 16 0.00 0.00
11:58 pm 23:58 Clear 37 2.7 28 -2.2 70 70 SW 3 6 29.98 1015 10 16 0.00 0.00

Powered by AerisWeather